GW3985 Weather Reports


Display with metric or nautical units.
time (UTC)temp
F
wind
direction
speed
MPH
gust
MPH
rain 1hr
in
rain 24hr
in
rain mn
in
humidity
%
barometer
mb
20260508103015 40 126 2.0 3.0 0.00 0.06 0.00 86 1019.3
20260508102035 41 131 1.0 2.0 0.00 0.06 0.00 86 1019.3
20260508101016 41 144 0.0 1.0 0.00 0.06 0.00 85 1019.4
20260508100016 41 0.0 0.0 0.00 0.06 0.00 85 1019.4
20260508095016 42 0.0 0.0 0.00 0.06 0.00 85 1019.2
20260508094017 42 0.0 0.0 0.00 0.06 0.00 84 1019.3
20260508093055 43 0.0 0.0 0.00 0.06 0.00 83 1019.5
20260508092015 43 144 0.0 1.0 0.00 0.06 0.00 83 1019.6
20260508091036 43 144 0.0 1.0 0.00 0.06 0.00 84 1019.5
20260508090016 43 144 0.0 1.0 0.00 0.06 0.00 83 1019.5
20260508085016 44 0.0 0.0 0.00 0.06 0.00 82 1019.6
20260508084017 44 144 0.0 1.0 0.00 0.06 0.00 82 1019.7
20260508083017 44 0.0 0.0 0.00 0.06 0.00 81 1019.9
20260508082015 45 0.0 0.0 0.00 0.06 0.00 79 1019.9
20260508081015 46 0.0 0.0 0.00 0.06 0.00 78 1020.0
20260508080016 46 144 0.0 1.0 0.00 0.06 0.00 77 1019.8
20260508075016 46 138 1.0 2.0 0.00 0.06 0.00 78 1019.9
20260508074016 47 109 0.0 1.0 0.00 0.06 0.00 77 1020.2
20260508073016 47 0.0 0.0 0.00 0.06 0.00 76 1020.3
20260508072017 48 0.0 0.0 0.00 0.06 0.00 74 1020.0
20260508071015 48 0.0 0.0 0.00 0.06 0.00 74 1020.0
20260508070015 49 109 0.0 1.0 0.00 0.06 0.00 73 1019.9
20260508065015 49 121 0.0 1.0 0.00 0.06 0.00 73 1020.2
20260508064016 49 123 0.0 1.0 0.00 0.06 0.00 72 1020.4
20260508063016 50 124 0.0 1.0 0.00 0.06 0.00 71 1021.1
20260508062017 50 133 1.0 2.0 0.00 0.06 0.00 70 1020.0
20260508061017 50 135 0.0 2.0 0.00 0.06 0.00 69 1019.9
20260508060015 51 135 0.0 1.0 0.00 0.06 0.00 68 1019.8
20260508055015 51 146 0.0 2.0 0.00 0.06 0.06 68 1019.7
20260508054016 51 113 0.0 1.0 0.00 0.06 0.06 67 1019.6
20260508053016 52 96 1.0 3.0 0.00 0.06 0.06 66 1019.7
20260508052016 52 106 1.0 3.0 0.00 0.06 0.06 63 1020.0
20260508051017 53 206 0.0 1.0 0.00 0.06 0.06 61 1020.2
20260508050017 53 322 0.0 1.0 0.00 0.06 0.06 59 1019.6
20260508045015 54 146 0.0 1.0 0.00 0.06 0.06 56 1019.2
20260508044015 54 95 0.0 2.0 0.00 0.06 0.06 55 1019.0
20260508043016 55 232 0.0 1.0 0.00 0.06 0.06 53 1019.2
20260508042016 55 0.0 0.0 0.00 0.06 0.06 52 1019.0
20260508041016 55 0.0 0.0 0.00 0.06 0.06 50 1019.2
20260508040017 56 0.0 0.0 0.00 0.06 0.06 50 1019.1
20260508035015 56 0.0 0.0 0.00 0.06 0.06 49 1019.1
20260508034115 57 0.0 0.0 0.00 0.06 0.06 48 1019.0
20260508033015 57 199 0.0 1.0 0.00 0.06 0.06 47 1019.1
20260508032036 57 125 0.0 2.0 0.00 0.06 0.06 48 1019.1
20260508031016 57 236 0.0 1.0 0.00 0.06 0.06 47 1019.5
20260508030017 57 231 0.0 1.0 0.00 0.06 0.06 46 1019.1
20260508025017 57 0.0 0.0 0.00 0.06 0.06 46 1018.8
20260508024014 58 258 0.0 1.0 0.00 0.06 0.06 45 1018.7
20260508023015 59 210 0.0 1.0 0.00 0.06 0.06 44 1018.5
20260508022035 58 354 1.0 7.0 0.00 0.06 0.06 44 1018.6
20260508021016 58 0.0 0.0 0.00 0.06 0.06 46 1018.3
20260508020016 59 0.0 0.0 0.00 0.06 0.06 44 1017.9
20260508015016 59 0.0 0.0 0.00 0.06 0.06 44 1017.7
20260508014017 60 0.0 0.0 0.00 0.06 0.06 42 1017.5
20260508013015 61 0.0 0.0 0.00 0.06 0.06 40 1017.4
20260508012015 61 0.0 0.0 0.00 0.07 0.06 39 1017.3
20260508011015 62 0.0 0.0 0.00 0.07 0.06 37 1017.2
20260508010016 62 0.0 0.0 0.00 0.07 0.06 38 1017.1
20260508005016 61 81 0.0 1.0 0.00 0.07 0.06 36 1017.3
20260508004037 61 0.0 0.0 0.00 0.08 0.06 36 1017.3
20260508003017 62 0.0 0.0 0.00 0.08 0.06 36 1017.2
20260508002015 62 83 0.0 4.0 0.00 0.09 0.06 34 1017.2
20260508001015 63 269 0.0 1.0 0.00 0.09 0.06 34 1017.2
20260508000015 63 269 0.0 1.0 0.00 0.09 0.06 34 1017.4
20260507235016 63 0.0 0.0 0.00 0.10 0.06 35 1017.3
20260507234017 62 269 0.0 1.0 0.00 0.11 0.06 35 1017.4
20260507233017 63 0.0 0.0 0.00 0.12 0.06 34 1017.4
20260507232017 63 267 0.0 1.0 0.00 0.13 0.06 33 1017.5
20260507231015 64 0.0 0.0 0.00 0.14 0.06 33 1017.5
20260507230015 65 233 0.0 1.0 0.00 0.16 0.06 32 1017.6
20260507225036 66 229 0.0 1.0 0.00 0.17 0.06 31 1017.6
20260507224016 68 248 0.0 1.0 0.00 0.18 0.06 30 1017.7
20260507223037 70 237 0.0 2.0 0.00 0.19 0.06 30 1017.7
20260507222017 68 246 0.0 1.0 0.00 0.20 0.06 31 1017.8
20260507221014 68 115 1.0 2.0 0.00 0.21 0.06 31 1017.9
20260507220015 69 199 1.0 2.0 0.00 0.22 0.06 30 1018.1
20260507215036 70 307 0.0 4.0 0.00 0.24 0.06 30 1018.2
20260507214036 69 83 1.0 4.0 0.00 0.24 0.06 29 1018.3
20260507213016 70 125 2.0 7.0 0.00 0.26 0.06 29 1018.3
20260507212016 68 204 1.0 7.0 0.00 0.28 0.06 30 1018.4
20260507211017 67 56 0.0 4.0 0.00 0.28 0.06 31 1018.5
20260507210015 69 145 1.0 3.0 0.00 0.30 0.06 31 1018.6
20260507205015 72 196 1.0 5.0 0.00 0.31 0.06 29 1018.6
20260507204036 70 250 1.0 3.0 0.00 0.34 0.06 30 1018.7
20260507203036 69 223 1.0 2.0 0.00 0.35 0.06 31 1018.8
20260507202016 69 174 2.0 6.0 0.00 0.38 0.06 30 1019.0
20260507201016 68 143 1.0 4.0 0.00 0.40 0.06 30 1019.2
20260507200017 68 150 1.0 3.0 0.00 0.43 0.06 31 1019.3
20260507195015 68 28 1.0 2.0 0.00 0.43 0.06 31 1019.5
20260507194015 67 287 1.0 4.0 0.00 0.44 0.06 32 1019.6
20260507193016 67 206 2.0 9.0 0.00 0.44 0.06 32 1019.6
20260507192016 66 230 2.0 5.0 0.00 0.44 0.06 34 1019.6
20260507191016 66 227 3.0 8.0 0.00 0.45 0.06 32 1019.7
20260507190017 65 240 2.0 8.0 0.00 0.45 0.06 35 1019.8
20260507185018 63 226 2.0 7.0 0.00 0.45 0.06 37 1019.8
20260507184035 63 242 3.0 8.0 0.00 0.45 0.06 37 1020.1
20260507183016 63 232 2.0 6.0 0.00 0.46 0.06 37 1020.2
20260507182016 62 266 2.0 5.0 0.00 0.46 0.06 38 1020.3
20260507181016 62 252 2.0 7.0 0.01 0.46 0.06 39 1020.2
20260507180057 60 273 2.0 4.0 0.01 0.46 0.06 41 1020.3
20260507175017 59 267 2.0 8.0 0.01 0.46 0.06 41 1020.2
20260507174034 59 135 1.0 3.0 0.02 0.46 0.06 41 1020.4
20260507173015 59 132 2.0 4.0 0.02 0.46 0.06 41 1020.6
20260507172015 59 189 1.0 7.0 0.02 0.46 0.06 42 1020.6
20260507171016 58 138 1.0 4.0 0.02 0.46 0.06 43 1020.8
20260507170016 57 130 1.0 8.0 0.02 0.46 0.06 45 1020.9
20260507165016 56 130 1.0 4.0 0.03 0.46 0.06 46 1021.1
20260507164017 55 129 1.0 3.0 0.02 0.45 0.05 46 1021.1
20260507163015 55 121 1.0 4.0 0.04 0.45 0.05 45 1021.2
20260507162035 55 278 1.0 4.0 0.03 0.44 0.04 47 1021.3
20260507161035 54 137 2.0 6.0 0.03 0.44 0.04 48 1021.4
20260507160016 53 154 1.0 5.0 0.03 0.43 0.03 48 1021.5
20260507155037 52 134 1.0 4.0 0.02 0.43 0.02 49 1021.5
20260507154016 51 134 1.0 4.0 0.02 0.43 0.02 49 1021.6
20260507153017 50 135 1.0 4.0 0.01 0.41 0.01 49 1021.6
20260507152055 49 138 1.0 4.0 0.01 0.41 0.01 50 1021.6
20260507151015 48 137 2.0 6.0 0.01 0.41 0.01 50 1021.5
20260507150016 47 131 1.0 3.0 0.00 0.40 0.00 50 1021.5
20260507145016 47 127 2.0 6.0 0.00 0.40 0.00 49 1021.5
20260507144036 46 136 2.0 7.0 0.00 0.40 0.00 51 1021.6
20260507143037 45 139 3.0 7.0 0.00 0.40 0.00 51 1021.5
20260507142018 45 136 2.0 5.0 0.00 0.40 0.00 51 1021.5
20260507141015 44 146 2.0 5.0 0.00 0.40 0.00 51 1021.6
20260507140015 44 131 2.0 8.0 0.00 0.40 0.00 50 1021.6
20260507135015 43 137 1.0 4.0 0.00 0.40 0.00 53 1021.5
20260507134016 42 139 2.0 5.0 0.00 0.40 0.00 53 1021.5
20260507133016 41 138 1.0 5.0 0.00 0.40 0.00 54 1021.5
20260507132017 40 130 1.0 4.0 0.00 0.40 0.00 55 1021.4
20260507131017 39 137 2.0 7.0 0.00 0.40 0.00 55 1021.4
20260507130035 39 132 2.0 6.0 0.00 0.40 0.00 56 1021.3
20260507125015 38 141 2.0 5.0 0.00 0.40 0.00 57 1021.2
20260507124016 37 132 1.0 2.0 0.00 0.40 0.00 58 1021.1
20260507123016 37 138 1.0 5.0 0.00 0.40 0.00 59 1020.9
20260507122056 36 136 1.0 3.0 0.00 0.40 0.00 59 1020.9
20260507121017 36 137 1.0 4.0 0.00 0.40 0.00 59 1020.8
20260507120017 36 136 1.0 3.0 0.00 0.40 0.00 60 1020.8
20260507115015 36 135 1.0 3.0 0.00 0.40 0.00 60 1020.6
20260507114015 36 136 1.0 5.0 0.00 0.40 0.00 59 1020.7
20260507113016 36 133 1.0 3.0 0.00 0.40 0.00 59 1020.7
20260507112016 36 139 1.0 2.0 0.00 0.40 0.00 59 1020.6
20260507111016 37 137 1.0 3.0 0.00 0.40 0.00 58 1020.6
20260507110017 36 136 2.0 5.0 0.00 0.40 0.00 59 1020.7
20260507105017 36 139 2.0 6.0 0.00 0.40 0.00 59 1020.7
20260507104035 36 137 2.0 4.0 0.00 0.40 0.00 60 1020.7